Jackson, MI

12:39 PM EST on December 11, 2017 (GMT -0500)
Jackson County-Reynolds

Weather History for KJXN - February, 2014

Change the Weather History Date:

Thursday, February 20, 2014

  Actual Average Record
Temperature  
Mean Temperature 38 °F 27 °F  
Max Temperature 47 °F 36 °F 60 °F (1983)
Min Temperature 28 °F 19 °F -19 °F (2015)
Degree Days  
Heating Degree Days 27 38  
Month to date heating degree days 959 792  
Since 1 July heating degree days 5186 4623  
Cooling Degree Days 0 0  
Month to date cooling degree days 0 0  
Year to date cooling degree days 0 0  
Moisture  
Dew Point 33 °F    
Average Humidity 88    
Maximum Humidity 100    
Minimum Humidity 75    
Precipitation  
Precipitation 1.29 in 0.05 in 1.29 in (2014)
Month to date precipitation 2.38 0.87  
Year to date precipitation 4.28 2.36  
Sea Level Pressure  
Sea Level Pressure 29.67 in    
Wind  
Wind Speed 13 mph (SE)    
Max Wind Speed 24 mph    
Max Gust Speed 32 mph    
Visibility 3 miles    
Events Fog , Rain , Snow , Thunderstorm    
T = Trace of Precipitation, MM = Missing Value Source: NWS Daily Summary

Daily Weather History Graph

Daily Weather History Graph

Search for Another Location

Airport or City:

Trip Planner

Search our weather history database for the weather conditions in past years. The results will help you decide how hot, cold, wet, or windy it might be!

Date:

Astronomy

Feb. 20, 2014 Rise Set
Actual Time 7:26 AM EST 6:16 PM EST
Civil Twilight 6:58 AM EST 6:45 PM EST
Nautical Twilight 6:25 AM EST 7:17 PM EST
Astronomical Twilight 5:53 AM EST 7:50 PM EST
Moon No Moon Rise 10:02 AM EST (2/20)
Length of Visible Light 11h 46m
Length of Day
10h 49m
Waning Gibbous, 71% of the Moon is Illuminated
Feb 20
Waning Gibbous
Feb 22
Last Quarter
Mar 1
New
Mar 8
First Quarter
Mar 16
Full

Hourly Weather History & Observations

Time (EST) Temp. Windchill Dew Point Humidity Pressure Visibility Wind Dir Wind Speed Gust Speed Precip Events Conditions
12:56 AM 30.0 °F 26.5 °F 25.0 °F 82% 30.06 in 6.0 mi SSW 3.5 mph - N/A   Haze
1:56 AM 32.0 °F 27.5 °F 26.1 °F 79% 30.05 in 7.0 mi South 4.6 mph - N/A   Clear
2:56 AM 30.9 °F 24.3 °F 27.0 °F 85% 30.03 in 6.0 mi SE 6.9 mph - N/A   Mostly Cloudy
3:56 AM 30.9 °F 24.3 °F 27.0 °F 85% 29.99 in 5.0 mi SE 6.9 mph - N/A   Partly Cloudy
4:56 AM 32.0 °F 24.2 °F 28.0 °F 85% 29.96 in 5.0 mi SE 9.2 mph - N/A   Clear
5:56 AM 33.1 °F 26.1 °F 28.9 °F 85% 29.94 in 5.0 mi ESE 8.1 mph - N/A   Clear
6:56 AM 32.0 °F 24.2 °F 28.0 °F 85% 29.94 in 4.0 mi East 9.2 mph - N/A   Clear
7:56 AM 32.0 °F 24.8 °F 28.0 °F 85% 29.91 in 3.0 mi ESE 8.1 mph - N/A   Partly Cloudy
8:56 AM 33.1 °F 25.5 °F 27.0 °F 78% 29.90 in 5.0 mi East 9.2 mph - N/A   Haze
9:45 AM 33.1 °F 27.7 °F 26.1 °F 75% 29.87 in 2.5 mi East 5.8 mph - 0.00 in Snow Light Snow
9:51 AM 33.8 °F 28.6 °F 26.6 °F 75% 29.87 in 0.8 mi East 5.8 mph - 0.00 in Snow Light Snow
9:56 AM 32.0 °F 24.2 °F 27.0 °F 82% 29.90 in 0.5 mi ESE 9.2 mph - 0.01 in Snow Snow
10:06 AM 30.9 °F 21.7 °F 28.0 °F 89% 29.86 in 0.2 mi East 11.5 mph - 0.01 in Fog , Snow Snow
10:14 AM 30.9 °F 20.7 °F 28.9 °F 92% 29.85 in 0.2 mi East 13.8 mph - 0.05 in Fog , Snow , Thunderstorm Heavy Thunderstorms and Snow
10:34 AM 30.9 °F 22.8 °F 30.0 °F 96% 29.83 in 0.2 mi East 9.2 mph - 0.25 in Fog , Snow , Thunderstorm Snow
10:48 AM 32.0 °F 23.6 °F 30.0 °F 92% 29.83 in 0.5 mi East 10.4 mph - 0.40 in Fog , Snow , Thunderstorm Light Snow
10:56 AM 32.0 °F 22.5 °F 30.0 °F 92% 29.84 in 1.0 mi East 12.7 mph - 0.43 in Snow Light Snow
11:25 AM 33.1 °F 23.4 °F 30.9 °F 92% 29.78 in 2.0 mi ESE 13.8 mph 23.0 mph 0.14 in Rain Rain
11:56 AM 34.0 °F 23.4 °F 32.0 °F 92% 29.78 in 2.0 mi ESE 17.3 mph - 0.35 in Rain Rain
12:25 PM 34.0 °F 24.2 °F 32.0 °F 92% 29.71 in 4.0 mi ESE 15.0 mph 28.8 mph 0.15 in Rain Light Rain
12:56 PM 34.0 °F 25.5 °F 33.1 °F 96% 29.72 in 3.0 mi SE 11.5 mph - 0.21 in Rain Light Rain
1:14 PM 34.0 °F 23.0 °F 33.1 °F 96% 29.66 in 2.5 mi ESE 18.4 mph 26.5 mph 0.05 in Rain Rain
1:31 PM 34.0 °F 24.2 °F 33.1 °F 96% 29.66 in 6.0 mi ESE 15.0 mph - 0.08 in Rain Light Rain
1:56 PM 34.0 °F 23.8 °F 33.1 °F 96% 29.69 in 2.0 mi SE 16.1 mph - 0.12 in Rain Rain
2:04 PM 34.0 °F 23.8 °F 33.1 °F 96% 29.66 in 1.8 mi ESE 16.1 mph 23.0 mph 0.02 in Rain Light Rain
2:09 PM 34.0 °F 23.0 °F 33.1 °F 96% 29.65 in 3.0 mi ESE 18.4 mph 25.3 mph 0.02 in Rain Light Rain
2:19 PM 34.0 °F 23.4 °F 33.1 °F 96% 29.65 in 2.5 mi ESE 17.3 mph 23.0 mph 0.02 in   Overcast
2:30 PM 34.0 °F 24.2 °F 33.1 °F 96% 29.64 in 3.0 mi ESE 15.0 mph 24.2 mph 0.02 in   Overcast
2:47 PM 34.0 °F 23.8 °F 33.1 °F 96% 29.64 in 2.5 mi SE 16.1 mph 25.3 mph 0.02 in Rain Light Rain
2:56 PM 34.0 °F 22.7 °F 33.1 °F 96% 29.66 in 3.0 mi ESE 19.6 mph 26.5 mph 0.02 in   Overcast
3:00 PM 34.0 °F 22.7 °F 33.1 °F 96% 29.63 in 1.8 mi ESE 19.6 mph 26.5 mph 0.00 in Rain Light Rain
3:49 PM 34.0 °F 23.8 °F 34.0 °F 100% 29.61 in 3.0 mi ESE 16.1 mph 23.0 mph 0.01 in Rain Light Rain
3:56 PM 34.0 °F 23.8 °F 33.1 °F 96% 29.63 in 2.5 mi ESE 16.1 mph - 0.03 in   Overcast
4:13 PM 34.0 °F 24.2 °F 33.1 °F 96% 29.60 in 4.0 mi ESE 15.0 mph 25.3 mph 0.00 in   Overcast
4:56 PM 35.1 °F 24.8 °F 33.1 °F 92% 29.60 in 4.0 mi ESE 17.3 mph 24.2 mph 0.00 in   Overcast
5:13 PM 35.1 °F 24.5 °F 33.1 °F 92% 29.57 in 2.0 mi ESE 18.4 mph - 0.01 in Rain Light Rain
5:31 PM 35.1 °F 25.2 °F 33.1 °F 92% 29.55 in 4.0 mi ESE 16.1 mph - 0.03 in Rain Light Rain
5:56 PM 35.1 °F 24.8 °F 34.0 °F 96% 29.56 in 3.0 mi ESE 17.3 mph 24.2 mph 0.06 in   Overcast
6:02 PM 35.1 °F 25.5 °F 34.0 °F 96% 29.53 in 2.5 mi SE 15.0 mph 24.2 mph 0.01 in Rain , Thunderstorm Rain
6:17 PM 35.1 °F 25.2 °F 34.0 °F 96% 29.52 in 4.0 mi ESE 16.1 mph - 0.03 in Rain Light Rain
6:56 PM 36.0 °F 28.0 °F 35.1 °F 97% 29.53 in 5.0 mi SE 11.5 mph - 0.04 in Rain Light Rain
7:51 PM 35.6 °F 26.6 °F 35.6 °F 100% 29.46 in 2.0 mi ESE 13.8 mph - 0.00 in   Overcast
7:56 PM 37.0 °F 28.5 °F 36.0 °F 96% 29.49 in 2.0 mi SSE 13.8 mph 20.7 mph 0.00 in   Overcast
8:09 PM 37.0 °F 28.5 °F 36.0 °F 96% 29.45 in 1.2 mi SE 13.8 mph - N/A   Overcast
8:32 PM 37.0 °F 28.5 °F 37.0 °F 100% 29.43 in 0.8 mi SE 13.8 mph - N/A   Overcast
8:56 PM 37.9 °F 28.5 °F 37.0 °F 97% 29.44 in 1.0 mi SE 17.3 mph 23.0 mph N/A   Overcast
9:19 PM 37.9 °F 30.5 °F 37.9 °F 100% 29.41 in 2.0 mi SE 11.5 mph - N/A   Overcast
9:37 PM 39.0 °F 32.8 °F 37.9 °F 96% 29.40 in 3.0 mi SE 9.2 mph - N/A   Overcast
9:56 PM 39.0 °F 29.3 °F 37.9 °F 96% 29.38 in 4.0 mi SSE 19.6 mph 24.2 mph N/A   Mostly Cloudy
10:11 PM 41.0 °F 32.2 °F 39.9 °F 96% 29.36 in 5.0 mi SSE 18.4 mph 28.8 mph 0.00 in Rain Light Rain
10:56 PM 45.0 °F 38.5 °F 43.0 °F 93% 29.39 in 6.0 mi South 13.8 mph - 0.02 in   Overcast
11:07 PM 45.0 °F 38.5 °F 44.1 °F 97% 29.38 in 6.0 mi South 13.8 mph - N/A   Overcast
11:23 PM 46.0 °F 40.2 °F 44.1 °F 93% 29.37 in 6.0 mi South 12.7 mph - N/A   Overcast
11:56 PM 46.0 °F 38.0 °F 44.1 °F 93% 29.39 in 7.0 mi SSW 21.9 mph 32.2 mph N/A   Overcast